Location: Caltech
(34.1382°N, 118.1253°W)
Time: 07:00:13
(UTC-07:00)

RS-15 - Visible Passes

Search period start: 29 July 2016 00:00
Search period end: 08 August 2016 00:00
Orbit: 1883 x 2162 km, 64.8° (Epoch: 27 July)

Date Brightness Start Highest point End Pass type
(mag) Time Alt. Az. Time Alt. Az. Time Alt. Az.
29 Jul 9.5 05:26:07 10° SSE 05:36:00 37° ESE 05:46:18 10° NE visible
30 Jul 9.8 04:51:46 10° SSE 05:00:26 26° ESE 05:09:23 10° NE visible
31 Jul 9.9 04:18:17 10° SE 04:24:58 18° E 04:31:48 10° ENE visible
01 Aug 10.2 03:47:23 10° ESE 03:49:37 11° E 03:51:50 10° E visible
02 Aug 8.8 05:13:01 10° S 05:23:47 52° ESE 05:35:05 10° NE visible
03 Aug 9.2 04:38:04 10° S 04:48:05 38° ESE 04:58:33 10° NE visible
04 Aug 9.5 04:03:36 10° SSE 04:12:30 28° ESE 04:21:42 10° NE visible
05 Aug 9.8 03:29:58 10° SE 03:37:02 19° E 03:44:16 10° ENE visible
05 Aug 8.2 05:36:16 10° SSW 05:47:39 90° WNW 05:59:45 10° NNE visible
06 Aug 10.0 02:58:14 10° ESE 03:01:39 12° E 03:05:06 10° ENE visible
06 Aug 8.3 05:00:29 10° SSW 05:11:42 71° ESE 05:23:35 10° NNE visible
07 Aug 8.6 04:25:02 10° S 04:35:53 54° ESE 04:47:18 10° NE visible
